TimeCST,TemperatureF,Dew PointF,Humidity,Sea Level PressureIn,VisibilityMPH,Wind Direction,Wind SpeedMPH,Gust SpeedMPH,PrecipitationIn,Events,Conditions,WindDirDegrees,DateUTC
12:34 AM,12.2,8.6,85,29.90,5.0,West,5.8,-,0.00,Snow,Light Snow,270,2013-02-23 06:34:00
12:41 AM,14.0,10.4,86,29.90,6.0,West,8.1,-,0.00,,Overcast,280,2013-02-23 06:41:00
12:52 AM,12.9,10.0,88,29.97,6.0,West,8.1,-,0.00,Snow,Light Snow,280,2013-02-23 06:52:00
12:59 AM,12.2,8.6,85,29.90,6.0,West,8.1,-,0.00,Snow,Light Snow,280,2013-02-23 06:59:00
1:52 AM,7.0,5.0,92,29.97,10.0,West,8.1,-,0.00,,Clear,280,2013-02-23 07:52:00
2:52 AM,6.1,3.0,87,29.96,10.0,WNW,9.2,-,N/A,,Partly Cloudy,290,2013-02-23 08:52:00
3:52 AM,1.0,-0.9,91,29.95,9.0,WNW,8.1,-,N/A,,Clear,290,2013-02-23 09:52:00
4:52 AM,3.0,-0.0,87,29.95,9.0,WSW,5.8,-,N/A,,Clear,250,2013-02-23 10:52:00
5:52 AM,5.0,1.9,87,29.96,9.0,WSW,6.9,-,N/A,,Clear,240,2013-02-23 11:52:00
6:52 AM,1.0,-0.9,91,29.96,10.0,WNW,4.6,-,N/A,,Clear,290,2013-02-23 12:52:00
7:52 AM,1.9,-0.9,88,29.97,7.0,SW,6.9,-,N/A,,Clear,230,2013-02-23 13:52:00
8:52 AM,5.0,1.9,87,29.96,8.0,SW,6.9,-,N/A,,Clear,220,2013-02-23 14:52:00
9:52 AM,10.0,6.1,84,29.96,8.0,WSW,4.6,-,N/A,,Clear,250,2013-02-23 15:52:00
10:52 AM,14.0,10.0,84,29.95,10.0,SW,4.6,-,N/A,,Clear,230,2013-02-23 16:52:00
11:52 AM,16.0,12.0,84,29.95,10.0,SSW,3.5,-,N/A,,Clear,200,2013-02-23 17:52:00
12:52 PM,19.0,12.9,77,29.94,10.0,Calm,Calm,-,N/A,,Clear,0,2013-02-23 18:52:00
1:52 PM,21.0,15.1,78,29.93,10.0,Calm,Calm,-,N/A,,Clear,0,2013-02-23 19:52:00
2:52 PM,21.9,16.0,78,29.92,10.0,ESE,3.5,-,N/A,,Clear,120,2013-02-23 20:52:00
3:52 PM,21.0,16.0,81,29.92,9.0,ESE,5.8,-,N/A,,Clear,120,2013-02-23 21:52:00
4:52 PM,18.0,14.0,84,29.91,8.0,ESE,6.9,-,N/A,,Clear,120,2013-02-23 22:52:00
5:52 PM,14.0,10.0,84,29.93,7.0,SE,8.1,-,N/A,,Clear,130,2013-02-23 23:52:00
6:52 PM,10.9,9.0,92,29.95,7.0,SE,6.9,-,N/A,,Clear,140,2013-02-24 00:52:00
7:52 PM,10.0,8.1,92,29.96,4.0,SE,6.9,-,N/A,,Clear,130,2013-02-24 01:52:00
8:50 PM,6.8,5.0,92,29.88,1.2,ESE,5.8,-,N/A,,Clear,120,2013-02-24 02:50:00
8:52 PM,6.1,3.9,91,29.97,0.8,ESE,5.8,-,N/A,,Clear,120,2013-02-24 02:52:00
9:34 PM,1.4,1.4,100,29.90,0.2,Calm,Calm,-,N/A,Fog,Light Freezing Fog,0,2013-02-24 03:34:00
9:52 PM,3.0,1.0,91,29.99,0.2,Calm,Calm,-,N/A,Fog,Light Freezing Fog,0,2013-02-24 03:52:00
10:52 PM,1.0,-0.9,91,29.98,0.2,ENE,4.6,-,N/A,Fog,Light Freezing Fog,60,2013-02-24 04:52:00
11:52 PM,-0.9,-2.9,91,29.99,0.2,Calm,Calm,-,N/A,Fog,Light Freezing Fog,0,2013-02-24 05:52:00